Location: Winthrop
(48.4780°N, 120.1850°W)
Time: 10:06:41
(UTC-08:00)

deb Explorer IX - All Passes

Search period start: 07 February 2023 00:00
Search period end: 17 February 2023 00:00
Orbit: 534 x 1048 km, 38.8° (Epoch: 05 February)

Date Brightness Start Highest point End Pass type
(mag) Time Alt. Az. Time Alt. Az. Time Alt. Az.
07 Feb - 01:40:14 10° S 01:42:10 12° SSE 01:44:01 10° SE night (unlit)
07 Feb - 03:23:54 10° SW 03:27:26 21° S 03:30:41 10° ESE visible
07 Feb - 05:09:32 10° WSW 05:12:42 20° S 05:15:44 10° SE visible
08 Feb - 01:07:33 10° S 01:09:26 12° SSE 01:11:15 10° SE night (unlit)
08 Feb - 02:51:03 10° SW 02:54:43 22° S 02:58:04 10° ESE night (unlit)
08 Feb - 04:36:38 10° WSW 04:40:01 21° S 04:43:10 10° SE visible
08 Feb - 06:24:24 10° SW 06:25:04 10° SSW 06:25:43 10° SSW visible
09 Feb - 00:34:50 10° S 00:36:39 12° SSE 00:38:25 10° SE night (unlit)
09 Feb - 02:18:07 10° SW 02:21:57 22° S 02:25:26 10° ESE night (unlit)
09 Feb - 04:03:41 10° WSW 04:07:17 22° S 04:10:36 10° SE visible
09 Feb - 05:50:52 10° SW 05:52:21 12° SSW 05:53:48 10° S visible
10 Feb - 00:02:06 10° S 00:03:50 11° SSE 00:05:31 10° SE night (unlit)
10 Feb - 01:45:10 10° SW 01:49:08 22° S 01:52:45 10° ESE night (unlit)
10 Feb - 03:30:41 10° WSW 03:34:30 24° S 03:38:00 10° SE visible
10 Feb - 05:17:35 10° SW 05:19:37 13° SSW 05:21:35 10° S visible
10 Feb - 23:29:23 10° S 23:30:59 11° SSE 23:32:32 10° SE night (unlit)
11 Feb - 01:12:08 10° SW 01:16:17 22° SSE 01:20:01 10° ESE night (unlit)
11 Feb - 02:57:37 10° WSW 03:01:41 25° S 03:05:20 10° SE night (unlit)
11 Feb - 04:44:20 10° WSW 04:46:50 15° SSW 04:49:12 10° S visible
11 Feb - 22:56:43 10° SSE 22:58:04 11° SSE 22:59:23 10° SE night (unlit)
12 Feb - 00:39:04 10° SW 00:43:22 23° SSE 00:47:15 10° ESE night (unlit)
12 Feb - 02:24:30 10° WSW 02:28:49 26° S 02:32:40 10° SE night (unlit)
12 Feb - 04:11:05 10° WSW 04:14:01 16° SSW 04:16:44 10° SSE visible
12 Feb - 22:24:11 10° SSE 22:25:07 10° SSE 22:26:02 10° SE night (unlit)
13 Feb - 00:05:58 10° SW 00:10:25 23° SSE 00:14:25 10° ESE night (unlit)
13 Feb - 01:51:21 10° WSW 01:55:53 28° S 01:59:56 10° SE night (unlit)
13 Feb - 03:37:49 10° WSW 03:41:08 18° SSW 03:44:12 10° SSE visible
13 Feb - 23:32:50 10° SSW 23:37:24 22° SSE 23:41:32 10° ESE night (unlit)
14 Feb - 01:18:07 10° WSW 01:22:55 29° S 01:27:08 10° ESE night (unlit)
14 Feb - 03:04:31 10° WSW 03:08:13 20° SSW 03:11:36 10° SSE night (unlit)
14 Feb - 22:59:40 10° SSW 23:04:21 22° SSE 23:08:36 10° ESE night (unlit)
15 Feb - 00:44:52 10° WSW 00:49:53 30° S 00:54:18 10° ESE night (unlit)
15 Feb - 02:31:11 10° WSW 02:35:15 22° SSW 02:38:55 10° SSE night (unlit)
15 Feb - 22:26:29 10° SSW 22:31:14 22° SSE 22:35:35 10° ESE night (unlit)
16 Feb - 00:11:34 10° WSW 00:16:47 30° S 00:21:25 10° ESE night (unlit)
16 Feb - 01:57:49 10° WSW 02:02:13 24° SSW 02:06:11 10° SE night (unlit)
16 Feb - 21:53:18 10° SSW 21:58:05 22° SSE 22:02:30 10° ESE night (unlit)
16 Feb - 23:38:13 10° SW 23:43:39 31° S 23:48:28 10° ESE night (unlit)
